CDT,Max TemperatureF,Mean TemperatureF,Min TemperatureF,Max Dew PointF,MeanDew PointF,Min DewpointF,Max Humidity, Mean Humidity, Min Humidity, Max Sea Level PressureIn, Mean Sea Level PressureIn, Min Sea Level PressureIn, Max VisibilityMiles, Mean VisibilityMiles, Min VisibilityMiles, Max Wind SpeedMPH, Mean Wind SpeedMPH, Max Gust SpeedMPH,PrecipitationIn, CloudCover, Events, WindDirDegrees
2012-10-1,74,64,53,47,43,39,66,51,32,29.93,29.89,29.85,10,10,10,16,8,22,0.00,0,,295
2012-10-2,73,62,50,48,45,40,82,57,31,29.97,29.92,29.88,10,10,5,8,5,,0.00,0,,55
2012-10-3,78,64,50,48,43,35,83,51,21,29.97,29.93,29.89,10,10,5,12,5,,0.00,0,,166
2012-10-4,60,52,42,45,35,27,65,51,36,30.17,30.03,29.88,10,10,7,26,13,37,0.00,1,Thunderstorm,274
2012-10-5,50,44,37,30,24,19,72,48,29,30.18,30.14,30.09,10,10,10,25,15,32,0.00,2,,297
2012-10-6,43,39,35,28,23,20,71,52,40,30.23,30.19,30.11,10,10,10,18,13,28,0.00,7,,320
2012-10-7,52,40,29,23,17,10,69,41,18,30.22,30.12,29.99,10,10,7,16,7,25,0.00,1,,250
2012-10-8,66,52,39,38,26,18,60,39,19,29.98,29.83,29.72,10,10,10,25,15,34,0.00,4,Rain,201
2012-10-9,53,47,41,47,39,26,86,71,49,29.96,29.84,29.77,10,9,4,22,9,29,0.18,7,Rain,261
2012-10-10,53,42,32,28,24,20,71,49,28,30.13,30.05,29.97,10,10,10,17,12,24,0.00,2,,273
2012-10-11,52,44,37,33,25,13,53,41,26,30.35,30.08,29.90,10,10,10,20,14,29,0.00,1,,309
2012-10-12,54,41,28,23,18,10,75,42,17,30.45,30.33,30.11,10,10,7,13,6,20,0.00,1,Rain-Thunderstorm,133
2012-10-13,66,56,46,62,53,30,88,84,53,30.09,29.80,29.68,10,4,0,16,10,24,0.33,8,Rain-Thunderstorm,183
2012-10-14,58,50,43,55,45,34,89,79,58,29.87,29.71,29.62,10,7,0,22,11,30,0.48,6,Fog-Rain-Thunderstorm,346
2012-10-15,63,52,40,40,37,34,79,59,34,29.97,29.91,29.84,10,10,10,9,6,,0.00,1,,258
2012-10-16,69,60,50,49,45,40,78,58,45,29.84,29.57,29.41,10,10,10,21,9,25,0.00,1,,160
2012-10-17,62,56,49,53,45,37,85,68,42,29.40,29.33,29.30,10,10,7,21,10,30,0.00,5,Rain,226
2012-10-18,49,46,44,41,39,37,85,78,66,29.38,29.28,29.22,10,9,1,18,9,23,0.02,8,Rain,245
2012-10-19,50,45,40,44,41,36,87,81,67,29.72,29.57,29.38,10,9,2,8,3,,0.03,6,Rain,348
2012-10-20,55,46,37,45,38,33,89,79,56,29.87,29.80,29.72,10,6,0,8,5,,0.00,4,Fog,239
2012-10-21,72,58,44,49,44,39,82,61,38,29.90,29.86,29.83,10,10,7,22,10,26,0.00,0,,165
2012-10-22,66,62,57,58,54,49,87,76,69,29.90,29.88,29.85,10,7,1,12,6,,0.02,7,Rain-Thunderstorm,96
2012-10-23,72,66,60,66,61,57,89,83,70,29.87,29.79,29.73,10,5,0,16,9,22,0.05,8,Fog-Rain-Thunderstorm,155
2012-10-24,73,66,59,66,63,56,88,84,71,29.84,29.77,29.69,10,5,1,14,6,22,0.00,8,Thunderstorm,173
2012-10-25,59,48,36,56,41,28,88,81,63,30.17,29.80,29.58,10,7,2,32,13,45,0.69,8,Rain-Thunderstorm,330
2012-10-26,42,38,33,28,25,23,75,61,49,30.38,30.32,30.18,10,10,10,22,13,29,0.00,5,,300
2012-10-27,44,38,31,28,22,16,83,56,35,30.38,30.33,30.30,10,10,10,7,4,,0.00,3,,298
2012-10-28,48,38,29,25,18,14,75,46,26,30.36,30.32,30.28,10,10,7,8,1,,0.00,0,,159
2012-10-29,48,38,29,26,21,17,70,48,30,30.34,30.29,30.21,10,10,10,10,3,,0.00,3,,124
2012-10-30,50,41,32,28,23,19,68,51,32,30.21,30.10,30.00,10,10,10,18,7,25,0.00,0,,360
2012-10-31,51,40,28,23,18,7,72,49,17,30.01,29.97,29.93,10,10,10,17,8,20,0.00,0,,326